Вернуться в каталог

STARLINK-1156

АктивенСвязьVLEO
NORAD 45054·PAYLOAD·🇺🇸 United States

Запущен Jan 29, 2020 с Cape Canaveral Space Force Station

Loading…

Ближайшие Пролёты (ближайшие 24 часа)

TLE

СвежийSource: CelesTrak SupGP

Эпоха: Sep 14, 2026, 21:04 UTC

1 45054C 20006L   26257.87826389  .00023458  00000+0  51922-3 0  2579
2 45054  53.1516 114.9074 0001342 130.5574 152.9974 15.43203168    13

Отслеживайте STARLINK-1156 в реальном времени с AllMySat

Download on the App Store